Weather History for YWLM - August, 2013

Change the Weather History Date:

Monday, August 12, 2013

  Actual Average Record
Temperature  
Mean Temperature 62 °F -  
Max Temperature 80 °F - - ()
Min Temperature 44 °F - - ()
Degree Days  
Heating Degree Days 3    
Growing Degree Days 12 (Base 50)    
Moisture  
Dew Point 42 °F    
Average Humidity 54    
Maximum Humidity 100    
Minimum Humidity 14    
Precipitation  
Precipitation 0.00 in - - ()
Sea Level Pressure  
Sea Level Pressure 29.77 in    
Wind  
Wind Speed 9 mph ()    
Max Wind Speed 29 mph    
Max Gust Speed 39 mph    
Visibility 7.8 miles    
Events      
T = Trace of Precipitation, MM = Missing Value Source: Averaged Metar Reports

Daily Weather History Graph

Daily Weather History Graph

Search for Another Location

Airport or City:

Trip Planner

Search our weather history database for the weather conditions in past years. The results will help you decide how hot, cold, wet, or windy it might be!

Date:

Astronomy

Aug. 12, 2013 Rise Set
Actual Time 6:33 AM AEST 5:22 PM AEST
Civil Twilight 6:07 AM AEST 5:47 PM AEST
Nautical Twilight 5:38 AM AEST 6:17 PM AEST
Astronomical Twilight 5:09 AM AEST 6:46 PM AEST
Moon 9:12 AM AEST (8/12) 10:30 PM AEST (8/12)
Length of Visible Light 11h 40m
Length of Day
10h 48m
Waxing Crescent, 25% of the Moon is Illuminated
Aug 12
Waxing Crescent
Aug 14
First Quarter
Aug 21
Full
Aug 28
Last Quarter
Sep 5
New

Hourly Weather History & Observations

Time (AEST) Temp. Windchill Dew Point Humidity Pressure Visibility Wind Dir Wind Speed Gust Speed Precip Events Conditions
12:00 AM 49 °F - 45 °F 82% 29.91 in - NNW 3.5 mph - -  
12:00 AM 48.2 °F - 44.6 °F 87% 29.89 in 6.2 mi NNW 3.5 mph - N/A   Unknown
12:30 AM 50.0 °F - 44.6 °F 82% 29.89 in - NNW 5.8 mph - N/A   Unknown
1:00 AM 49 °F - 46 °F 83% 29.89 in - NW 3.5 mph - -  
1:00 AM 50.0 °F - 46.4 °F 87% 29.89 in - NW 3.5 mph - N/A   Unknown
1:30 AM 48.2 °F - 46.4 °F 93% 29.86 in - NW 4.6 mph - N/A   Unknown
2:00 AM 48.2 °F - 46.4 °F 93% 29.86 in - NW 6.9 mph - N/A   Unknown
2:30 AM 48.2 °F - 46.4 °F 93% 29.86 in - NW 6.9 mph - N/A   Unknown
3:00 AM 49 °F - 47 °F 89% 29.85 in - NW 3.5 mph - -  
3:00 AM 48.2 °F - 46.4 °F 93% 29.83 in - NW 3.5 mph - N/A   Unknown
3:30 AM 48.2 °F - 46.4 °F 93% 29.83 in - North 4.6 mph - N/A   Unknown
4:00 AM 47 °F - 46 °F 94% 29.83 in - North 2.3 mph - -  
4:00 AM 48.2 °F - 46.4 °F 93% 29.80 in - North 2.3 mph - N/A   Unknown
4:30 AM 48.2 °F - 48.2 °F 100% 29.80 in - North 1.2 mph - N/A   Unknown
5:00 AM 48.2 °F - 46.4 °F 93% 29.80 in - NNW 4.6 mph - N/A   Unknown
5:30 AM 48.2 °F - 46.4 °F 93% 29.80 in - NNW 3.5 mph - N/A   Unknown
6:00 AM 47 °F - 45 °F 91% 29.81 in 19 mi Calm Calm - -   Partly Cloudy
6:00 AM 46.4 °F - 44.6 °F 93% 29.80 in - Calm Calm - N/A   Clear
6:30 AM 44.6 °F - 44.6 °F 100% 29.77 in - Calm Calm - N/A   Clear
7:00 AM 45 °F - 43 °F 90% 29.78 in - NW 5.8 mph - -  
7:00 AM 44.6 °F 41.4 °F 42.8 °F 93% 29.77 in - NW 5.8 mph - N/A   Clear
7:30 AM 51.8 °F - 48.2 °F 88% 29.77 in - North 5.8 mph - N/A   Clear
8:00 AM 53.6 °F - 48.2 °F 82% 29.77 in - NNW 5.8 mph - N/A   Clear
8:30 AM 57.2 °F - 48.2 °F 72% 29.77 in - NNW 5.8 mph - N/A   Clear
9:00 AM 62.6 °F - 44.6 °F 52% 29.77 in - NW 8.1 mph - N/A   Clear
9:30 AM 64.4 °F - 44.6 °F 49% 29.74 in - NW 9.2 mph - N/A   Clear
10:00 AM 66.2 °F - 44.6 °F 46% 29.74 in - North 8.1 mph - N/A   Clear
10:30 AM 68.0 °F - 44.6 °F 43% 29.71 in - North 6.9 mph - N/A   Clear
11:00 AM 71.6 °F - 44.6 °F 38% 29.68 in - North 5.8 mph - N/A   Clear
11:30 AM 75.2 °F - 44.6 °F 34% 29.65 in - NNW 8.1 mph - N/A   Clear
12:00 PM 75.2 °F - 46.4 °F 36% 29.62 in - WNW 5.8 mph - N/A   Clear
12:30 PM 75.2 °F - 48.2 °F 38% 29.62 in - West 6.9 mph - N/A   Clear
1:00 PM 80 °F - 39 °F 14% 29.62 in - West 20.7 mph - -  
1:00 PM 80.6 °F - 39.2 °F 23% 29.62 in - West 20.7 mph - N/A   Clear
1:03 PM 80.6 °F - 33.8 °F 18% 29.62 in - West 23.0 mph 34.5 mph N/A   Clear
1:30 PM 78.8 °F - 35.6 °F 21% 29.62 in - WNW 21.9 mph - N/A   Clear
1:39 PM 78.8 °F - 37.4 °F 23% 29.62 in - West 20.7 mph 33.4 mph N/A   Clear
2:00 PM 78.8 °F - 37.4 °F 23% 29.62 in - WNW 16.1 mph - N/A   Clear
2:03 PM 78.8 °F - 35.6 °F 21% 29.62 in - West 17.3 mph 29.9 mph N/A   Clear
2:30 PM 78.8 °F - 39.2 °F 24% 29.62 in - West 16.1 mph - N/A   Clear
2:50 PM 78.8 °F - 37.4 °F 23% 29.65 in 6.2 mi WNW 25.3 mph - N/A   Unknown
2:56 PM 78.8 °F - 37.4 °F 23% 29.65 in - WNW 27.6 mph 39.1 mph N/A   Clear
3:00 PM 77.0 °F - 37.4 °F 24% 29.65 in - WNW 26.5 mph 39.1 mph N/A   Clear
3:30 PM 77.0 °F - 35.6 °F 22% 29.65 in - WNW 20.7 mph 32.2 mph N/A   Clear
3:37 PM 75.2 °F - 37.4 °F 25% 29.68 in 6.2 mi WSW 24.2 mph - N/A   Unknown
3:43 PM 75.2 °F - 35.6 °F 24% 29.68 in - West 20.7 mph 32.2 mph N/A   Clear
4:00 PM 73 °F - 36 °F 15% 29.71 in - West 23.0 mph - -  
4:00 PM 73.4 °F - 35.6 °F 25% 29.71 in - West 23.0 mph - N/A   Clear
4:06 PM 71.6 °F - 37.4 °F 29% 29.71 in - WSW 24.2 mph 36.8 mph N/A   Clear
4:30 PM 69.8 °F - 37.4 °F 31% 29.74 in - West 24.2 mph 36.8 mph N/A   Clear
5:00 PM 68.0 °F - 39.2 °F 35% 29.77 in - West 20.7 mph - N/A   Clear
5:20 PM 68.0 °F - 39.2 °F 35% 29.77 in - WNW 17.3 mph 33.4 mph N/A   Clear
5:33 PM 68.0 °F - 39.2 °F 35% 29.77 in - WNW 19.6 mph 31.1 mph N/A   Clear
5:51 PM 66.2 °F - 39.2 °F 37% 29.77 in - NW 23.0 mph 34.5 mph N/A   Clear
6:00 PM 66 °F - 39 °F 26% 29.79 in - WNW 28.8 mph - -   Overcast
6:00 PM 66.2 °F - 39.2 °F 37% 29.77 in - WNW 28.8 mph - N/A   Clear
6:02 PM 66.2 °F - 39.2 °F 37% 29.77 in - WNW 27.6 mph 39.1 mph N/A   Clear
6:30 PM 66.2 °F - 39.2 °F 37% 29.77 in - NW 20.7 mph - N/A   Clear
7:00 PM 65 °F - 41 °F 29% 29.81 in - NW 21.9 mph - -  
7:00 PM 66.2 °F - 41.0 °F 40% 29.80 in - NW 21.9 mph - N/A   Clear
7:30 PM 64.4 °F - 42.8 °F 45% 29.83 in - WNW 19.6 mph - N/A   Clear
8:00 PM 62.6 °F - 42.8 °F 48% 29.83 in - WNW 18.4 mph - N/A   Clear
8:30 PM 62.6 °F - 42.8 °F 48% 29.83 in - NW 21.9 mph - N/A   Clear
9:00 PM 61 °F - 44 °F 42% 29.87 in - WNW 17.3 mph - -  
9:00 PM 60.8 °F - 44.6 °F 55% 29.86 in - WNW 17.3 mph - N/A   Unknown
9:30 PM 59.0 °F - 44.6 °F 59% 29.89 in 6.2 mi WNW 9.2 mph - N/A   Unknown
10:00 PM 58 °F - 44 °F 50% 29.88 in - NW 15.0 mph - -  
10:00 PM 57.2 °F - 44.6 °F 63% 29.86 in 6.2 mi NW 15.0 mph - N/A   Unknown
10:30 PM 57.2 °F - 42.8 °F 59% 29.86 in 6.2 mi WNW 16.1 mph - N/A   Unknown
11:00 PM 57.2 °F - 41.0 °F 55% 29.89 in 6.2 mi West 10.4 mph - N/A   Unknown
11:30 PM 55.4 °F - 37.4 °F 51% 29.89 in - West 11.5 mph - N/A   Unknown